{"data":{"norad_id":69198,"epoch":"2026-09-20T00:35:38.241024Z","epoch_age_seconds":68037,"freshness":"FRESH","line1":"1 69198U 26114S   26263.02474816  .00008844  00000+0  27257-3 0  9997","line2":"2 69198  53.1573 115.9048 0001423  93.3550 266.7616 15.34400496 19372","mean_motion":15.34400496,"eccentricity":0.0001423,"inclination_deg":53.1573,"raan_deg":115.9048,"arg_perigee_deg":93.355,"mean_anomaly_deg":266.7616,"bstar":0.00027257,"rev_number":1937,"period_min":93.847727744739,"perigee_km":461.72831463457,"apogee_km":463.67521734738,"semimajor_km":6840.838765991,"source":"CELESTRAK","updated_at":"2026-09-20T09:00:44.098857Z"}}